CW2220 Weather Reports


Display with metric or nautical units.
time (UTC)temp
F
wind
direction
speed
MPH
gust
MPH
rain 1hr
in
rain 24hr
in
rain mn
in
humidity
%
barometer
mb
20260904173101 88 71 4.0 11.0 0.00 1.00 0.00 76 1014.6
20260904171545 88 51 5.0 11.0 0.00 1.00 0.00 77 1014.7
20260904170046 88 351 4.0 11.0 0.00 1.00 0.00 77 1015.0
20260904164553 87 352 4.0 10.0 0.00 1.00 0.00 79 1015.3
20260904163042 88 41 5.0 9.0 0.00 1.00 0.00 76 1015.2
20260904161541 88 32 2.0 9.0 0.00 1.00 0.00 78 1015.3
20260904160047 87 12 4.0 10.0 0.00 1.00 0.00 80 1015.2
20260904154545 87 72 3.0 9.0 0.00 1.00 0.00 80 1015.2
20260904153042 86 22 5.0 10.0 0.00 1.00 0.00 84 1015.1
20260904151548 84 34 2.0 8.0 0.00 1.00 0.00 88 1015.0
20260904150104 84 355 2.0 6.0 0.00 1.00 0.00 87 1014.9
20260904144541 84 36 3.0 6.0 0.00 1.00 0.00 87 1014.9
20260904143042 83 109 2.0 5.0 0.00 1.00 0.00 89 1014.9
20260904141548 82 53 1.0 4.0 0.00 1.00 0.00 91 1014.8
20260904140046 81 33 1.0 5.0 0.00 1.00 0.00 94 1014.6
20260904134553 80 327 1.0 5.0 0.00 1.00 0.00 97 1014.9
20260904133044 78 36 2.0 5.0 0.00 1.00 0.00 98 1014.6
20260904131545 78 13 0.0 3.0 0.00 1.00 0.00 99 1014.5
20260904130045 76 13 1.0 3.0 0.00 1.00 0.00 99 1014.2
20260904124538 75 0 0.0 0.0 0.00 1.00 0.00 99 1014.0
20260904123048 75 0 0.0 0.0 0.00 1.00 0.00 99 1014.1
20260904121542 74 0 0.0 0.0 0.00 1.00 0.00 99 1014.0
20260904120043 74 0 0.0 0.0 0.00 1.00 0.00 98 1014.0
20260904114541 74 0 0.0 0.0 0.00 1.00 0.00 98 1013.7
20260904113050 74 0 0.0 0.0 0.00 1.00 0.00 98 1013.6
20260904111546 75 0 0.0 0.0 0.00 1.00 0.00 98 1013.6
20260904110046 75 0 0.0 0.0 0.00 1.00 0.00 98 1013.5
20260904104540 75 0 0.0 0.0 0.00 1.01 0.00 98 1013.4
20260904103038 75 0 0.0 0.0 0.00 1.01 0.00 98 1013.3
20260904101539 75 0 0.0 0.0 0.00 1.01 0.00 98 1013.3
20260904100040 75 0 0.0 0.0 0.00 1.01 0.00 98 1013.4
20260904094544 75 0 0.0 0.0 0.00 1.01 0.00 98 1013.3
20260904093041 75 0 0.0 0.0 0.00 1.01 0.00 98 1013.2
20260904091535 75 52 1.0 4.0 0.00 1.01 0.00 98 1013.1
20260904090038 75 0 0.0 2.0 0.00 1.01 0.00 98 1013.2
20260904084539 75 0 0.0 1.0 0.00 1.01 0.00 98 1013.1
20260904083046 75 0 0.0 0.0 0.00 1.01 0.00 98 1013.0
20260904081540 75 0 0.0 0.0 0.00 1.01 0.00 98 1012.9
20260904080041 75 0 0.0 0.0 0.00 1.01 0.00 98 1013.0
20260904074540 75 0 0.0 0.0 0.00 1.01 0.00 98 1013.1
20260904073048 76 0 0.0 0.0 0.00 1.01 0.00 98 1013.2
20260904071541 76 0 0.0 0.0 0.00 1.01 0.00 98 1013.1
20260904070039 76 0 0.0 0.0 0.00 1.01 0.00 97 1013.3
20260904064539 76 0 0.0 0.0 0.00 1.01 0.00 98 1013.5
20260904063045 76 0 0.0 0.0 0.00 1.01 0.00 97 1013.4
20260904061541 76 0 0.0 0.0 0.00 1.01 0.00 98 1013.4
20260904060039 76 0 0.0 0.0 0.00 1.01 0.00 98 1013.3
20260904054538 76 0 0.0 0.0 0.00 1.01 0.00 98 1013.2
20260904053040 76 0 0.0 0.0 0.00 1.01 0.00 98 1013.3
20260904051539 76 0 0.0 0.0 0.00 1.01 0.00 97 1013.2
20260904050040 76 0 0.0 0.0 0.00 1.01 0.00 97 1013.2
20260904044539 76 0 0.0 0.0 0.00 1.01 1.01 97 1013.2
20260904043043 76 0 0.0 0.0 0.00 1.01 1.01 97 1013.2
20260904041543 76 0 0.0 0.0 0.00 1.01 1.01 97 1013.2
20260904040043 76 0 0.0 0.0 0.00 1.01 1.01 97 1013.2
20260904034552 76 0 0.0 0.0 0.00 1.01 1.01 96 1013.3
20260904033039 77 0 0.0 0.0 0.00 1.01 1.01 96 1013.3
20260904031543 77 0 0.0 0.0 0.00 1.01 1.01 96 1013.3
20260904030040 77 0 0.0 0.0 0.00 1.01 1.01 96 1013.3
20260904024547 77 0 0.0 0.0 0.00 1.01 1.01 96 1013.3
20260904023047 77 0 0.0 0.0 0.00 1.01 1.01 96 1013.6
20260904021545 77 0 0.0 0.0 0.00 1.01 1.01 96 1013.6
20260904020040 77 0 0.0 0.0 0.00 1.01 1.01 96 1013.5
20260904014553 77 0 0.0 0.0 0.00 1.01 1.01 96 1013.4
20260904013042 78 0 0.0 0.0 0.00 1.01 1.01 96 1013.3
20260904011547 78 0 0.0 0.0 0.00 1.01 1.01 96 1013.1
20260904010049 78 0 0.0 0.0 0.00 1.01 1.01 95 1013.1
20260904004543 78 0 0.0 0.0 0.00 1.01 1.01 95 1013.0
20260904003040 78 0 0.0 0.0 0.00 1.01 1.01 95 1012.7
20260904001540 79 0 0.0 0.0 0.00 1.01 1.01 95 1012.9
20260904000041 79 0 0.0 0.0 0.00 1.01 1.01 95 1012.9
20260903234541 79 0 0.0 0.0 0.00 1.01 1.01 95 1012.6
20260903233040 79 0 0.0 0.0 0.00 1.01 1.01 95 1012.9
20260903231542 79 0 0.0 0.0 0.00 1.01 1.01 96 1012.6
20260903230042 79 0 0.0 0.0 0.00 1.01 1.01 97 1012.5
20260903224606 78 0 0.0 0.0 0.00 1.01 1.01 97 1012.8
20260903223042 78 0 0.0 0.0 0.00 1.01 1.01 97 1012.8
20260903221541 78 0 0.0 0.0 0.00 1.01 1.01 97 1012.6
20260903220048 77 0 0.0 0.0 0.00 1.01 1.01 97 1012.9
20260903214605 77 0 0.0 0.0 0.01 1.01 1.01 97 1012.9
20260903213041 76 0 0.0 0.0 0.19 1.01 1.01 97 1013.0
20260903211541 76 0 0.0 0.0 0.78 1.01 1.01 97 1013.0
20260903210058 76 0 0.0 3.0 0.98 1.01 1.01 96 1013.4
20260903204547 76 0 0.0 4.0 0.97 1.00 1.00 95 1014.1
20260903203056 76 297 0.0 10.0 0.77 0.80 0.80 93 1014.6
20260903201545 79 57 9.0 17.0 0.17 0.20 0.20 88 1014.6
20260903200050 84 32 4.0 18.0 0.00 0.03 0.03 73 1014.3
20260903194542 91 262 3.0 10.0 0.00 0.03 0.03 72 1013.8
20260903193043 90 159 2.0 11.0 0.00 0.03 0.03 74 1014.0
20260903191541 90 296 3.0 10.0 0.00 0.03 0.03 75 1014.1
20260903190041 90 167 2.0 6.0 0.00 0.03 0.03 78 1014.1
20260903184544 87 168 4.0 8.0 0.02 0.12 0.03 79 1014.2
20260903183045 87 263 5.0 12.0 0.02 0.12 0.03 82 1014.4
20260903181539 86 198 4.0 8.0 0.02 0.12 0.03 87 1014.6
20260903180046 84 121 0.0 10.0 0.02 0.12 0.03 92 1014.5
20260903174541 84 180 4.0 12.0 0.00 0.10 0.01 86 1014.7